Location: Bonningues
(50.7927°N, 2.0150°E)
Time: 10:13:17
(UTC+00:00)

Aureole 2 - Pass Details

Date: 08 August 2020
Orbit: 365 x 900 km, 73.9° (Epoch: 20 September)

Event Time Altitude Azimuth Distance (km) Brightness Sun altitude
Exits shadow 22:04:19 58° 179° (S) 554 4.5 -18.9°
Maximum altitude 22:04:54 77° 113° (ESE) 498 4.4 -19.0°
Drops below altitude 10° 22:08:52 10° 27° (NNE) 1,812 7.9 -19.3°
Sets 22:11:15 0° 26° (NNE) 2,810 9.0 -19.5°
